N631LG KSYR-KALB

Flight info

Callsign N631LG
Flight time 0h 37m
Altitude 15000
Route UCA
Aircraft TBM9/L-SDFGRWY/S

Departure

Time 2026-04-27 22:11
Airport Syracuse Hancock International Airport (KSYR)

Arrival

Time 2026-04-27 22:48
Airport Albany International Airport (KALB)
Time Latitude Longitude Altitude Speed Heading
2026-04-27 21:08 43.10420 -76.10633 411 ft 0 kts 175°
2026-04-27 21:40 43.10420 -76.10632 411 ft 0 kts 175°
2026-04-27 21:40 43.10420 -76.10633 411 ft 0 kts 175°
2026-04-27 21:59 43.10419 -76.10632 411 ft 1 kts 172°
2026-04-27 21:59 43.10405 -76.10610 408 ft 0 kts 107°
2026-04-27 22:00 43.10402 -76.10589 411 ft 13 kts 87°
2026-04-27 22:00 43.10435 -76.10537 410 ft 5 kts
2026-04-27 22:00 43.10439 -76.10536 410 ft 0 kts
2026-04-27 22:05 43.10504 -76.10535 410 ft 19 kts 358°
2026-04-27 22:06 43.10630 -76.10566 411 ft 17 kts 306°
2026-04-27 22:06 43.10645 -76.10734 412 ft 21 kts 267°
2026-04-27 22:06 43.10638 -76.10959 413 ft 26 kts 266°
2026-04-27 22:06 43.10629 -76.11174 415 ft 21 kts 267°
2026-04-27 22:07 43.10698 -76.11301 415 ft 18 kts 351°
2026-04-27 22:07 43.10735 -76.11442 416 ft 19 kts 267°
2026-04-27 22:07 43.10728 -76.11646 410 ft 24 kts 267°
2026-04-27 22:07 43.10721 -76.11884 417 ft 27 kts 267°
2026-04-27 22:08 43.10673 -76.12128 421 ft 25 kts 265°
2026-04-27 22:08 43.10668 -76.12382 421 ft 28 kts 267°
2026-04-27 22:08 43.10669 -76.12519 424 ft 8 kts 293°
2026-04-27 22:08 43.10709 -76.12547 419 ft 13 kts 358°
2026-04-27 22:09 43.10721 -76.12547 424 ft 0 kts 356°
2026-04-27 22:10 43.10748 -76.12549 423 ft 13 kts 358°
2026-04-27 22:10 43.10829 -76.12499 423 ft 22 kts 81°
2026-04-27 22:10 43.10850 -76.11775 415 ft 103 kts 86°
2026-04-27 22:10 43.10872 -76.10604 699 ft 127 kts 92°
2026-04-27 22:11 43.10821 -76.09426 1304 ft 127 kts 95°
2026-04-27 22:11 43.11020 -76.08148 1636 ft 159 kts 64°
2026-04-27 22:11 43.11359 -76.06682 1867 ft 167 kts 85°
2026-04-27 22:11 43.11420 -76.05035 2055 ft 176 kts 93°
2026-04-27 22:12 43.11358 -76.03363 2345 ft 172 kts 101°
2026-04-27 22:12 43.11142 -76.01819 2647 ft 162 kts 99°
2026-04-27 22:12 43.11106 -76.00224 2566 ft 178 kts 92°
2026-04-27 22:12 43.11141 -75.98542 2680 ft 170 kts 91°
2026-04-27 22:13 43.11186 -75.96959 2943 ft 163 kts 91°
2026-04-27 22:13 43.11228 -75.95420 3210 ft 162 kts 91°
2026-04-27 22:13 43.11122 -75.93903 3487 ft 160 kts 103°
2026-04-27 22:13 43.10912 -75.92415 3776 ft 159 kts 102°
2026-04-27 22:14 43.10745 -75.90912 4032 ft 159 kts 102°
2026-04-27 22:14 43.10505 -75.89445 4310 ft 156 kts 107°
2026-04-27 22:14 43.10252 -75.88012 4589 ft 153 kts 105°
2026-04-27 22:14 43.10025 -75.86616 4867 ft 148 kts 105°
2026-04-27 22:15 43.09808 -75.85266 5128 ft 146 kts 105°
2026-04-27 22:15 43.09593 -75.83912 5407 ft 146 kts 104°
2026-04-27 22:15 43.09385 -75.82594 5811 ft 135 kts 104°
2026-04-27 22:15 43.09193 -75.81400 6294 ft 122 kts 105°
2026-04-27 22:16 43.09028 -75.80334 6763 ft 108 kts 105°
2026-04-27 22:16 43.08882 -75.79392 7210 ft 95 kts 104°
2026-04-27 22:16 43.08731 -75.78447 7374 ft 111 kts 105°
2026-04-27 22:16 43.08539 -75.77324 7493 ft 131 kts 105°
2026-04-27 22:17 43.08326 -75.76041 7623 ft 146 kts 105°
2026-04-27 22:17 43.08099 -75.74651 7799 ft 151 kts 104°
2026-04-27 22:17 43.07873 -75.73245 8052 ft 152 kts 103°
2026-04-27 22:17 43.07646 -75.71833 8286 ft 148 kts 104°
2026-04-27 22:18 43.07433 -75.70507 8511 ft 152 kts 102°
2026-04-27 22:18 43.07206 -75.69085 8754 ft 153 kts 102°
2026-04-27 22:18 43.06974 -75.67666 8997 ft 154 kts 102°
2026-04-27 22:18 43.06731 -75.66168 9014 ft 168 kts 102°
2026-04-27 22:19 43.06467 -75.64563 9021 ft 177 kts 102°
2026-04-27 22:19 43.06192 -75.62890 9023 ft 183 kts 102°
2026-04-27 22:19 43.05911 -75.61173 9018 ft 186 kts 102°
2026-04-27 22:19 43.05629 -75.59434 9022 ft 188 kts 102°
2026-04-27 22:20 43.05344 -75.57684 9017 ft 189 kts 102°
2026-04-27 22:20 43.05062 -75.55949 9018 ft 189 kts 102°
2026-04-27 22:20 43.04778 -75.54211 9016 ft 186 kts 102°
2026-04-27 22:20 43.04493 -75.52465 9014 ft 185 kts 102°
2026-04-27 22:21 43.04217 -75.50771 9013 ft 185 kts 102°
2026-04-27 22:21 43.03936 -75.49054 9016 ft 185 kts 102°
2026-04-27 22:21 43.03652 -75.47333 9009 ft 185 kts 102°
2026-04-27 22:21 43.03369 -75.45618 9011 ft 185 kts 102°
2026-04-27 22:22 43.03090 -75.43898 9006 ft 185 kts 102°
2026-04-27 22:22 43.02807 -75.42183 9011 ft 185 kts 102°
2026-04-27 22:22 43.02525 -75.40476 9013 ft 184 kts 102°
2026-04-27 22:22 43.02245 -75.38768 9010 ft 184 kts 102°
2026-04-27 22:23 43.01962 -75.37057 9014 ft 185 kts 102°
2026-04-27 22:23 43.01678 -75.35338 9015 ft 185 kts 102°
2026-04-27 22:23 43.01394 -75.33622 9015 ft 185 kts 102°
2026-04-27 22:23 43.01112 -75.31907 9017 ft 185 kts 102°
2026-04-27 22:24 43.00828 -75.30191 9019 ft 185 kts 101°
2026-04-27 22:24 43.00545 -75.28476 9021 ft 185 kts 102°
2026-04-27 22:24 43.00260 -75.26765 9021 ft 185 kts 102°
2026-04-27 22:24 42.99975 -75.25056 9026 ft 185 kts 102°
2026-04-27 22:25 42.99696 -75.23369 9024 ft 184 kts 102°
2026-04-27 22:25 42.99412 -75.21666 9027 ft 183 kts 102°
2026-04-27 22:25 42.99129 -75.19961 9020 ft 184 kts 101°
2026-04-27 22:25 42.98843 -75.18252 9023 ft 184 kts 101°
2026-04-27 22:26 42.98559 -75.16551 9024 ft 184 kts 101°
2026-04-27 22:26 42.98276 -75.14851 9034 ft 184 kts 102°
2026-04-27 22:26 42.97988 -75.13141 9027 ft 184 kts 102°
2026-04-27 22:26 42.97702 -75.11433 9026 ft 184 kts 101°
2026-04-27 22:27 42.97418 -75.09725 9026 ft 184 kts 102°
2026-04-27 22:27 42.97132 -75.08022 9034 ft 184 kts 102°
2026-04-27 22:27 42.96846 -75.06317 9037 ft 185 kts 101°
2026-04-27 22:27 42.96562 -75.04631 9037 ft 184 kts 101°
2026-04-27 22:28 42.96275 -75.02927 9035 ft 184 kts 101°
2026-04-27 22:28 42.95990 -75.01219 9037 ft 184 kts 101°
2026-04-27 22:28 42.95703 -74.99518 9037 ft 185 kts 101°
2026-04-27 22:28 42.95412 -74.97804 9035 ft 185 kts 102°
2026-04-27 22:29 42.95123 -74.96092 9041 ft 185 kts 101°
2026-04-27 22:29 42.94833 -74.94379 9038 ft 185 kts 101°
2026-04-27 22:29 42.94545 -74.92673 9038 ft 184 kts 101°
2026-04-27 22:29 42.94257 -74.90968 9039 ft 184 kts 101°
2026-04-27 22:30 42.93969 -74.89260 8981 ft 184 kts 101°
2026-04-27 22:30 42.93687 -74.87600 8847 ft 183 kts 101°
2026-04-27 22:30 42.93398 -74.85898 8718 ft 186 kts 102°
2026-04-27 22:30 42.93104 -74.84180 8594 ft 186 kts 101°
2026-04-27 22:31 42.92810 -74.82454 8421 ft 189 kts 102°
2026-04-27 22:31 42.92516 -74.80735 8170 ft 182 kts 101°
2026-04-27 22:31 42.92231 -74.79066 7913 ft 179 kts 101°
2026-04-27 22:31 42.91958 -74.77449 7661 ft 176 kts 102°
2026-04-27 22:32 42.91682 -74.75834 7410 ft 174 kts 102°
2026-04-27 22:32 42.91408 -74.74234 7163 ft 173 kts 103°
2026-04-27 22:32 42.91135 -74.72642 6920 ft 171 kts 102°
2026-04-27 22:32 42.90859 -74.71056 6677 ft 172 kts 102°
2026-04-27 22:33 42.90581 -74.69477 6417 ft 170 kts 103°
2026-04-27 22:33 42.90310 -74.67905 6161 ft 170 kts 103°
2026-04-27 22:33 42.90130 -74.66846 5989 ft 170 kts 103°
2026-04-27 22:33 42.89865 -74.65297 5738 ft 170 kts 103°
2026-04-27 22:34 42.89594 -74.63731 5484 ft 169 kts 103°
2026-04-27 22:34 42.89327 -74.62177 5234 ft 168 kts 103°
2026-04-27 22:34 42.89060 -74.60629 5038 ft 165 kts 103°
2026-04-27 22:34 42.88807 -74.59154 5024 ft 155 kts 103°
2026-04-27 22:35 42.88570 -74.57757 5021 ft 149 kts 103°
2026-04-27 22:35 42.88321 -74.56295 5041 ft 167 kts 103°
2026-04-27 22:35 42.88044 -74.54704 5045 ft 177 kts 103°
2026-04-27 22:35 42.87751 -74.53038 5046 ft 183 kts 103°
2026-04-27 22:36 42.87454 -74.51339 5047 ft 186 kts 103°
2026-04-27 22:36 42.87157 -74.49613 5047 ft 188 kts 103°
2026-04-27 22:36 42.86853 -74.47871 5039 ft 189 kts 103°
2026-04-27 22:36 42.86549 -74.46125 5043 ft 189 kts 103°
2026-04-27 22:37 42.86248 -74.44377 5041 ft 190 kts 102°
2026-04-27 22:37 42.85945 -74.42629 5049 ft 190 kts 102°
2026-04-27 22:37 42.85643 -74.40898 5045 ft 190 kts 102°
2026-04-27 22:37 42.85338 -74.39144 5045 ft 190 kts 103°
2026-04-27 22:38 42.85032 -74.37389 5045 ft 191 kts 102°
2026-04-27 22:38 42.84724 -74.35634 5040 ft 191 kts 102°
2026-04-27 22:38 42.84417 -74.33875 5036 ft 191 kts 102°
2026-04-27 22:38 42.84111 -74.32113 5041 ft 191 kts 102°
2026-04-27 22:39 42.83803 -74.30358 5038 ft 191 kts 102°
2026-04-27 22:39 42.83496 -74.28602 5040 ft 191 kts 102°
2026-04-27 22:39 42.83188 -74.26845 5043 ft 191 kts 102°
2026-04-27 22:39 42.82878 -74.25085 5039 ft 191 kts 102°
2026-04-27 22:40 42.82570 -74.23329 5035 ft 190 kts 102°
2026-04-27 22:40 42.82262 -74.21576 5033 ft 190 kts 102°
2026-04-27 22:40 42.81952 -74.19823 5033 ft 190 kts 102°
2026-04-27 22:40 42.81643 -74.18069 5033 ft 190 kts 102°
2026-04-27 22:41 42.81334 -74.16315 5032 ft 191 kts 102°
2026-04-27 22:41 42.81024 -74.14555 5033 ft 191 kts 102°
2026-04-27 22:41 42.80717 -74.12817 5029 ft 191 kts 103°
2026-04-27 22:41 42.80406 -74.11059 5030 ft 191 kts 103°
2026-04-27 22:42 42.80092 -74.09296 4941 ft 195 kts 103°
2026-04-27 22:42 42.79766 -74.07467 4685 ft 202 kts 103°
2026-04-27 22:42 42.79433 -74.05592 4431 ft 204 kts 103°
2026-04-27 22:42 42.79109 -74.03779 4173 ft 182 kts 103°
2026-04-27 22:43 42.78830 -74.02198 3899 ft 164 kts 102°
2026-04-27 22:43 42.78569 -74.00704 3630 ft 160 kts 102°
2026-04-27 22:43 42.78309 -73.99238 3368 ft 159 kts 102°
2026-04-27 22:43 42.78049 -73.97784 3103 ft 154 kts 101°
2026-04-27 22:44 42.77806 -73.96438 3013 ft 135 kts 101°
2026-04-27 22:44 42.77605 -73.95310 3016 ft 109 kts 101°
2026-04-27 22:44 42.77432 -73.94404 2925 ft 95 kts 107°
2026-04-27 22:44 42.77060 -73.93531 2711 ft 121 kts 119°
2026-04-27 22:45 42.76541 -73.92548 2520 ft 129 kts 128°
2026-04-27 22:45 42.75961 -73.91669 2445 ft 121 kts 135°
2026-04-27 22:45 42.75460 -73.90795 2418 ft 128 kts 108°
2026-04-27 22:45 42.75168 -73.89679 2156 ft 122 kts 105°
2026-04-27 22:46 42.74880 -73.88611 1867 ft 121 kts 108°
2026-04-27 22:46 42.74755 -73.87481 1524 ft 123 kts 88°
2026-04-27 22:46 42.74775 -73.86352 1305 ft 119 kts 82°
2026-04-27 22:46 42.74828 -73.85201 1095 ft 119 kts 86°
2026-04-27 22:47 42.74829 -73.84264 938 ft 95 kts 89°
2026-04-27 22:47 42.74866 -73.83331 787 ft 102 kts 88°
2026-04-27 22:47 42.74890 -73.82361 564 ft 102 kts 88°
2026-04-27 22:47 42.74911 -73.81442 349 ft 92 kts 89°
2026-04-27 22:48 42.74928 -73.80697 280 ft 49 kts 89°
2026-04-27 22:48 42.74934 -73.80591 280 ft 8 kts 85°
2026-04-27 22:48 42.74934 -73.80574 279 ft 0 kts 94°
2026-04-27 22:48 42.74934 -73.80568 279 ft 0 kts 96°
2026-04-27 22:49 42.74872 -73.80573 280 ft 12 kts 207°
2026-04-27 22:49 42.74833 -73.80609 281 ft 1 kts 221°
2026-04-27 22:49 42.74797 -73.80620 282 ft 19 kts 171°
2026-04-27 22:49 42.74626 -73.80617 283 ft 25 kts 193°
2026-04-27 22:50 42.74538 -73.80718 283 ft 13 kts 190°
2026-04-27 22:50 42.74403 -73.80770 282 ft 11 kts 228°
2026-04-27 22:50 42.74397 -73.80792 282 ft 0 kts 268°